Home > Weather > Bratislava > Past weeks

Flag for Slovakia Weather for the Past 2 Weeks in Bratislava, Slovakia

Now
46 °F

Passing clouds.


Feels Like: 43 °F
Forecast: 45 / 54 °F
Wind: 7 mph from Northeast

Location: Bratislava Ivanka

Current Time: Feb 8, 2016 at 1:59:24 PM

Latest Report: Feb 8, 2016 at 1:30 PM


Visibility: N/A

Pressure: 29.86 "Hg

Humidity: 87%

Dew point: 43 °F

Location of BratislavaLocation

Historic Weather in Bratislava — Graph

°F

Bratislava Temperature Yesterday

Maximum temperature yesterday: 55 °F (at 2:30 PM)
Minimum temperature yesterday: 34 °F (at 12:00 AM)
Average temperature yesterday: 45 °F

High & Low Weather Summary for the Past Weeks

 TemperatureHumidityPressure
High55 °F (Feb 2, 12:30 AM)100% (Jan 24, 11:00 PM)30.51 "Hg (Jan 24, 11:00 PM)
Low23 °F (Jan 25, 2:00 AM)49% (Feb 4, 1:30 PM)29.83 "Hg (Jan 31, 2:00 AM)
Average40 °F85%30.17 "Hg
* Reported Jan 24 12:00 Noon — Feb 8 12:30 PM, Bratislava, Weather by CustomWeather, © 2016

Note: Actual official high and low records may vary slightly from our data, if they occured in-between our weather recording intervals... More about our weather records

Advertising

Bratislava Weather History for the Previous 24 Hours

 ConditionsComfort  
Time TempWeatherWind HumidityBarometerVisibility
12:30 PM
Mon, Feb 8
43 °FBroken clouds.7 mph93%29.89 "HgN/A
12:00 PM43 °FBroken clouds.7 mph93%29.92 "HgN/A
11:30 AM41 °FScattered clouds.8 mph100%29.92 "Hg10 mi
11:00 AM41 °FLight rain. Broken clouds.7 mph93%29.95 "HgN/A
10:30 AM41 °FLight rain. Broken clouds.7 mph93%29.95 "HgN/A
10:00 AM41 °FLight rain. Broken clouds.3 mph87%29.95 "HgN/A
9:30 AM41 °FLight rain. Mostly cloudy.5 mph87%29.95 "HgN/A
9:00 AM39 °FLight rain. Partly sunny.5 mph93%29.95 "HgN/A
8:30 AM39 °FPartly sunny.5 mph87%29.95 "HgN/A
8:00 AM39 °FBroken clouds.5 mph87%29.95 "HgN/A
7:30 AM39 °FPartly sunny.1 mph87%29.95 "HgN/A
7:00 AM39 °FClear.6 mph93%29.95 "Hg10 mi
6:30 AM37 °FClear.3 mph87%29.95 "Hg10 mi
6:00 AM39 °FClear.2 mph87%29.95 "Hg10 mi
5:30 AM39 °FClear.3 mph87%29.95 "Hg10 mi
5:00 AM39 °FClear.2 mph87%29.95 "Hg10 mi
4:30 AM39 °FClear.1 mph87%29.92 "Hg10 mi
4:00 AM39 °FClear.1 mph87%29.92 "Hg10 mi
3:30 AM39 °FClear.1 mph87%29.92 "Hg10 mi
3:00 AM41 °FClear.3 mph81%29.92 "Hg10 mi
2:00 AM41 °FClear.6 mph81%29.92 "Hg10 mi
1:30 AM41 °FClear.6 mph81%29.89 "Hg10 mi
1:00 AM41 °FPassing clouds.3 mph81%29.89 "HgN/A
12:00 AM46 °FPassing clouds.6 mph66%29.89 "HgN/A
11:30 PM
Sun, Feb 7
46 °FClear.5 mph66%29.89 "Hg10 mi
11:00 PM46 °FPassing clouds.8 mph66%29.86 "HgN/A
10:30 PM48 °FClear.9 mph66%29.86 "Hg10 mi
10:00 PM48 °FClear.13 mph62%29.86 "Hg10 mi
9:30 PM48 °FClear.14 mph62%29.86 "Hg10 mi
9:00 PM48 °FClear.12 mph62%29.86 "Hg10 mi
8:30 PM48 °FClear.12 mph62%29.86 "Hg10 mi
8:00 PM48 °FClear.15 mph62%29.86 "Hg10 mi
7:30 PM48 °FClear.17 mph62%29.86 "Hg10 mi
7:00 PM48 °FClear.13 mph62%29.86 "Hg10 mi
6:30 PM48 °FPassing clouds.17 mph62%29.83 "HgN/A
6:00 PM50 °FPassing clouds.16 mph62%29.83 "HgN/A
5:30 PM50 °FPassing clouds.18 mph67%29.83 "HgN/A
5:00 PM50 °FPassing clouds.16 mph67%29.83 "HgN/A
4:30 PM54 °FPassing clouds.15 mph58%29.83 "HgN/A
4:00 PM55 °FPassing clouds.17 mph55%29.83 "HgN/A
3:30 PM54 °FPassing clouds.15 mph63%29.83 "HgN/A
3:00 PM55 °FPassing clouds.15 mph59%29.83 "HgN/A
2:30 PM55 °FPassing clouds.18 mph55%29.83 "HgN/A
2:00 PM54 °FPassing clouds.17 mph63%29.83 "HgN/A
1:30 PM54 °FPassing clouds.20 mph58%29.83 "HgN/A
1:00 PM54 °FPassing clouds.21 mph58%29.86 "HgN/A
Weather by CustomWeather, © 2016

See weather overviewHow to use our weather pages